This is the latest recevied weather packets stored in our database for station/object KB0Y. If no packets are shown the sender has not sent any weather packets the latest 10 day(s).
| Time | Temp. | Humidity | Pressure | Rain* | Wind** | Luminosity | Snow |
|---|---|---|---|---|---|---|---|
| 1778079588 | 26.11° C | 78% | 1021 hPa | 0 mm | - | 527 W/m² | - |
| 1778079284 | 26.11° C | 78% | 1021 hPa | 0 mm | - | 470 W/m² | - |
| 1778078982 | 25.56° C | 80% | 1021 hPa | 0 mm | - | 438 W/m² | - |
| 1778078679 | 25.56° C | 81% | 1021 hPa | 0 mm | - | 449 W/m² | - |
| 1778078377 | 25° C | 80% | 1020.6 hPa | 0 mm | - | 453 W/m² | - |
| 1778078074 | 25° C | 81% | 1020.6 hPa | 0 mm | - | 463 W/m² | - |
| 1778077772 | 25° C | 83% | 1020.6 hPa | 0 mm | - | 466 W/m² | - |
| 1778077470 | 24.44° C | 83% | 1021 hPa | 0 mm | - | 462 W/m² | - |
| 1778077168 | 24.44° C | 83% | 1021 hPa | 0 mm | - | 422 W/m² | - |
| 1778076865 | 24.44° C | 84% | 1021 hPa | 0 mm | - | 438 W/m² | - |
| 1778076564 | 23.89° C | 86% | 1020.6 hPa | 0 mm | - | 401 W/m² | - |
| 1778076260 | 23.89° C | 86% | 1020.6 hPa | 0 mm | - | 346 W/m² | - |
| 1778075957 | 23.33° C | 86% | 1020.6 hPa | 0 mm | - | 358 W/m² | - |
| 1778075654 | 22.78° C | 87% | 1020.6 hPa | 0 mm | - | 392 W/m² | - |
| 1778075350 | 22.78° C | 86% | 1020.6 hPa | 0 mm | - | 359 W/m² | - |
| 1778075046 | 22.78° C | 89% | 1020.3 hPa | 0 mm | - | 365 W/m² | - |
| 1778074743 | 22.22° C | 87% | 1020.3 hPa | 0 mm | - | 290 W/m² | - |
| 1778074440 | 22.22° C | 88% | 1020.3 hPa | 0 mm | - | 296 W/m² | - |
| 1778074137 | 21.67° C | 88% | 1020.3 hPa | 0 mm | - | 247 W/m² | - |
| 1778073834 | 21.67° C | 89% | 1020.3 hPa | 0 mm | - | 273 W/m² | - |
| 1778073532 | 21.67° C | 89% | 1020.3 hPa | 0 mm | - | 298 W/m² | - |
| 1778073228 | 21.11° C | 90% | 1020.3 hPa | 0 mm | - | 308 W/m² | - |
| 1778072926 | 20.56° C | 90% | 1020.3 hPa | 0 mm | - | 248 W/m² | - |
| 1778072622 | 20° C | 93% | 1020.3 hPa | 0 mm | - | 261 W/m² | - |
| 1778072320 | 20° C | 93% | 1020.3 hPa | 0 mm | - | 234 W/m² | - |
* Rain latest hour (hover to see other rain measurements)
** Current wind speed in m/s (hover to see current wind gust speed)